Weather History for Anchorage, AK

Change the Weather History Date:

Sunday, January 26, 2014

  Actual Average Record
Temperature  
Mean Temperature 38 °F 17 °F  
Max Temperature 44 °F 23 °F 46 °F (1936)
Min Temperature 31 °F 11 °F -34 °F (1947)
Degree Days  
Heating Degree Days 27    
Month to date heating degree days 917  
Since 1 July heating degree days 5276  
Cooling Degree Days 0    
Month to date cooling degree days 0  
Year to date cooling degree days 0  
Moisture  
Dew Point 32 °F    
Average Humidity 83    
Maximum Humidity 96    
Minimum Humidity 70    
Precipitation  
Precipitation 0.00 in 0.02 in 0.57 in (1944)
Month to date precipitation 1.37 0.60  
Year to date precipitation 1.37 0.60  
Snow  
Snow 0.00 in 0.40 in 7.50 in (1944)
Month to date snowfall 9.2 9.4  
Since 1 July snowfall 43.5 47.5  
Snow Depth 8.00 in    
Sea Level Pressure  
Sea Level Pressure 29.98 in    
Wind  
Wind Speed 6 mph (West)    
Max Wind Speed 12 mph    
Max Gust Speed -    
Visibility 10 miles    
Events      
T = Trace of Precipitation, MM = Missing Value Source: NWS Daily Summary

Daily Weather History Graph

Daily Weather History Graph

Search for Another Location

Airport:

Trip Planner

Search our weather history database for the weather conditions in past years. The results will help you decide how hot, cold, wet, or windy it might be!

Date:

Astronomy

Jan. 26, 2014 Rise Set
Actual Time 9:34 AM AKST 4:51 PM AKST
Civil Twilight 8:42 AM AKST 5:43 PM AKST
Nautical Twilight 7:48 AM AKST 6:37 PM AKST
Astronomical Twilight 6:57 AM AKST 7:28 PM AKST
Moon 5:32 AM AKST (1/26) 12:38 PM AKST (1/26)
Length of Visible Light 9h 00m
Length of Day
7h 17m
Waning Crescent, 22% of the Moon is Illuminated
Jan 26
Waning Crescent
Jan 30
New
Feb 6
First Quarter
Feb 14
Full
Feb 22
Last Quarter

Hourly Weather History & Observations

Time (AKST) Temp. Windchill Dew Point Humidity Pressure Visibility Wind Dir Wind Speed Gust Speed Precip Events Conditions
12:53 AM 35.1 °F 29.3 °F 33.1 °F 92% 29.97 in 10.0 mi South 6.9 mph - N/A   Scattered Clouds
1:53 AM 35.1 °F 30.1 °F 32.0 °F 89% 29.96 in 10.0 mi ENE 5.8 mph - N/A   Scattered Clouds
3:53 AM 36.0 °F - 32.0 °F 86% 29.94 in 10.0 mi Calm Calm - N/A   Partly Cloudy
4:53 AM 34.0 °F 26.0 °F 30.9 °F 89% 29.93 in 10.0 mi NW 10.4 mph - N/A   Mostly Cloudy
5:53 AM 36.0 °F 29.0 °F 32.0 °F 86% 29.94 in 10.0 mi NNE 9.2 mph - N/A   Mostly Cloudy
6:53 AM 37.9 °F 31.5 °F 32.0 °F 79% 29.96 in 10.0 mi West 9.2 mph - N/A   Mostly Cloudy
7:53 AM 37.0 °F 32.4 °F 32.0 °F 82% 29.96 in 10.0 mi NW 5.8 mph - N/A   Mostly Cloudy
8:53 AM 37.0 °F 29.3 °F 33.1 °F 86% 30.01 in 10.0 mi WNW 11.5 mph - N/A   Mostly Cloudy
9:53 AM 37.0 °F 32.4 °F 32.0 °F 82% 30.03 in 10.0 mi West 5.8 mph - N/A   Mostly Cloudy
10:53 AM 37.9 °F 34.4 °F 33.1 °F 83% 30.00 in 10.0 mi SSE 4.6 mph - N/A   Overcast
11:53 AM 44.1 °F 40.8 °F 35.1 °F 71% 29.99 in 10.0 mi South 5.8 mph - N/A   Overcast
12:53 PM 39.0 °F 31.8 °F 32.0 °F 76% 30.03 in 10.0 mi NW 11.5 mph - N/A   Overcast
1:53 PM 39.0 °F 34.0 °F 33.1 °F 79% 30.02 in 10.0 mi West 6.9 mph - N/A   Mostly Cloudy
2:53 PM 37.9 °F 33.5 °F 33.1 °F 83% 30.01 in 10.0 mi West 5.8 mph - N/A   Mostly Cloudy
3:53 PM 37.9 °F 32.7 °F 33.1 °F 83% 30.00 in 10.0 mi WNW 6.9 mph - N/A   Mostly Cloudy
4:53 PM 37.9 °F 34.4 °F 33.1 °F 83% 30.01 in 10.0 mi WSW 4.6 mph - N/A   Mostly Cloudy
5:53 PM 39.0 °F 33.4 °F 33.1 °F 79% 30.02 in 10.0 mi West 8.1 mph - N/A   Mostly Cloudy
6:53 PM 37.9 °F 34.4 °F 32.0 °F 79% 30.01 in 10.0 mi NNW 4.6 mph - N/A   Scattered Clouds
7:53 PM 37.9 °F - 33.1 °F 83% 29.98 in 10.0 mi Calm Calm - N/A   Scattered Clouds
8:53 PM 33.1 °F 30.0 °F 30.9 °F 92% 29.98 in 10.0 mi SE 3.5 mph - N/A   Partly Cloudy
9:53 PM 34.0 °F 28.8 °F 30.9 °F 89% 29.96 in 10.0 mi WNW 5.8 mph - N/A   Partly Cloudy
10:53 PM 35.1 °F - 30.9 °F 85% 29.95 in 10.0 mi Calm Calm - N/A   Clear
11:53 PM 33.1 °F - 30.0 °F 89% 29.93 in 10.0 mi Calm Calm - N/A   Clear